Weather History for KCEW - March, 2014

Change the Weather History Date:

Saturday, March 29, 2014

  Actual Average Record
Temperature  
Mean Temperature 64 °F -  
Max Temperature 75 °F 74 °F - (-1)
Min Temperature 53 °F 54 °F - (-1)
Degree Days  
Heating Degree Days 1    
Growing Degree Days 14 (Base 50)    
Moisture  
Dew Point 55 °F    
Average Humidity 82    
Maximum Humidity 100    
Minimum Humidity 41    
Precipitation  
Precipitation 0.79 in - - ()
Sea Level Pressure  
Sea Level Pressure 29.97 in    
Wind  
Wind Speed 4 mph (NW)    
Max Wind Speed 15 mph    
Max Gust Speed 26 mph    
Visibility 6 miles    
Events Rain , Thunderstorm    
Averages and records for this station are not official NWS values.
T = Trace of Precipitation, MM = Missing Value Source: NWS Daily Summary

Daily Weather History Graph

Daily Weather History Graph

Search for Another Location

Airport or City:

Trip Planner

Search our weather history database for the weather conditions in past years. The results will help you decide how hot, cold, wet, or windy it might be!

Date:

Astronomy

Mar. 29, 2014 Rise Set
Actual Time 6:38 AM CDT 7:03 PM CDT
Civil Twilight 6:14 AM CDT 7:27 PM CDT
Nautical Twilight 5:46 AM CDT 7:55 PM CDT
Astronomical Twilight 5:17 AM CDT 8:24 PM CDT
Moon 5:42 AM CDT (3/29) 6:10 PM CDT (3/29)
Length of Visible Light 13h 12m
Length of Day
12h 24m
Waning Crescent, 2% of the Moon is Illuminated
Mar 29
Waning Crescent
Mar 30
New
Apr 7
First Quarter
Apr 15
Full
Apr 22
Last Quarter

Hourly Weather History & Observations

Time (CDT) Temp. Dew Point Humidity Pressure Visibility Wind Dir Wind Speed Gust Speed Precip Events Conditions
12:05 AM 54.0 °F 53.1 °F 97% 29.94 in 3.0 mi Calm Calm - N/A   Clear
12:20 AM 55.0 °F 53.1 °F 93% 29.94 in 1.8 mi Calm Calm - N/A   Clear
12:38 AM 54.0 °F 52.0 °F 93% 29.93 in 3.0 mi Calm Calm - N/A   Clear
12:53 AM 53.1 °F 52.0 °F 96% 29.91 in 3.0 mi ENE 4.6 mph - N/A   Clear
1:26 AM 54.0 °F 53.1 °F 97% 29.90 in 1.5 mi Calm Calm - N/A   Partly Cloudy
1:30 AM 54.0 °F 53.1 °F 97% 29.91 in 0.8 mi Calm Calm - N/A   Mist
1:40 AM 54.0 °F 53.1 °F 97% 29.91 in 2.5 mi Calm Calm - N/A   Mostly Cloudy
1:53 AM 55.0 °F 54.0 °F 96% 29.91 in 9.0 mi Calm Calm - N/A   Overcast
2:53 AM 57.0 °F 55.0 °F 93% 29.88 in 9.0 mi ENE 3.5 mph - N/A Thunderstorm Overcast
3:04 AM 57.0 °F 55.9 °F 96% 29.91 in 5.0 mi West 3.5 mph - 0.00 in Rain , Thunderstorm Thunderstorms and Rain
3:21 AM 59.0 °F 57.0 °F 93% 29.94 in 1.8 mi NNW 4.6 mph - 0.08 in Rain , Thunderstorm Heavy Thunderstorms and Rain
3:51 AM 59.0 °F 57.2 °F 94% 29.97 in 2.0 mi Calm Calm - 0.30 in Rain , Thunderstorm Heavy Rain
3:52 AM 59.0 °F 57.9 °F 96% 29.97 in 2.0 mi Calm Calm - 0.31 in Rain , Thunderstorm Heavy Rain
3:59 AM 59.0 °F 59.0 °F 100% 29.97 in 1.2 mi Calm Calm - 0.05 in Rain , Thunderstorm Heavy Rain
4:08 AM 59.0 °F 59.0 °F 100% 30.00 in 3.0 mi West 6.9 mph - 0.07 in Rain , Thunderstorm Rain
4:12 AM 59.0 °F 59.0 °F 100% 30.01 in 2.5 mi WNW 8.1 mph - 0.08 in Rain Rain
4:24 AM 60.1 °F 60.1 °F 100% 30.01 in 1.5 mi WNW 11.5 mph 18.4 mph 0.19 in Rain Heavy Rain
4:32 AM 60.1 °F 60.1 °F 100% 30.00 in 2.0 mi NNW 5.8 mph - 0.25 in Rain , Thunderstorm Heavy Thunderstorms and Rain
4:51 AM 60.8 °F 60.8 °F 100% 29.99 in 2.5 mi East 5.8 mph - 0.33 in Rain , Thunderstorm Heavy Rain
4:53 AM 60.1 °F 60.1 °F 100% 29.98 in 3.0 mi East 6.9 mph - 0.34 in Rain , Thunderstorm Heavy Rain
5:06 AM 59.0 °F 59.0 °F 100% 29.95 in 3.0 mi East 6.9 mph - 0.06 in Rain Heavy Rain
5:53 AM 59.0 °F 59.0 °F 100% 29.89 in 5.0 mi ESE 9.2 mph - 0.14 in Rain Rain
6:53 AM 60.1 °F 59.0 °F 96% 29.94 in 10.0 mi South 4.6 mph - 0.00 in   Mostly Cloudy
7:53 AM 61.0 °F 59.0 °F 93% 29.94 in 10.0 mi SSW 3.5 mph - N/A   Mostly Cloudy
8:53 AM 64.9 °F 60.1 °F 84% 29.94 in 10.0 mi WSW 12.7 mph - N/A   Scattered Clouds
9:53 AM 69.1 °F 60.1 °F 73% 29.95 in 10.0 mi West 11.5 mph - N/A   Partly Cloudy
10:53 AM 72.0 °F 57.0 °F 59% 29.96 in 10.0 mi WNW 11.5 mph - N/A   Scattered Clouds
11:53 AM 72.0 °F 55.9 °F 57% 29.96 in 10.0 mi WNW 15.0 mph - N/A   Mostly Cloudy
12:53 PM 72.0 °F 55.9 °F 57% 29.96 in 10.0 mi WNW 13.8 mph - N/A   Overcast
1:53 PM 69.1 °F 55.0 °F 61% 29.96 in 10.0 mi WNW 15.0 mph - N/A   Overcast
2:53 PM 70.0 °F 55.9 °F 61% 29.95 in 10.0 mi NW 9.2 mph - N/A   Overcast
3:53 PM 73.9 °F 57.0 °F 55% 29.93 in 10.0 mi West 9.2 mph - N/A   Scattered Clouds
4:53 PM 75.0 °F 50.0 °F 41% 29.94 in 10.0 mi NW 13.8 mph 26.5 mph N/A   Partly Cloudy
5:53 PM 71.1 °F 46.9 °F 42% 29.98 in 10.0 mi NNW 13.8 mph 25.3 mph N/A   Clear
6:53 PM 64.9 °F 46.9 °F 52% 30.02 in 10.0 mi NNW 9.2 mph 21.9 mph N/A   Clear
7:53 PM 61.0 °F 48.0 °F 62% 30.05 in 10.0 mi NW 6.9 mph - N/A   Clear
8:53 PM 60.1 °F 46.0 °F 60% 30.08 in 10.0 mi NNW 5.8 mph - N/A   Clear
9:53 PM 59.0 °F 45.0 °F 60% 30.11 in 10.0 mi NNW 11.5 mph - N/A   Clear
10:53 PM 57.0 °F 44.1 °F 62% 30.13 in 10.0 mi NNW 10.4 mph 18.4 mph N/A   Clear
11:53 PM 55.0 °F 42.1 °F 62% 30.16 in 10.0 mi NNW 10.4 mph - N/A   Clear